GW1952 Weather Reports


time (UTC)temp
C
wind
direction
speed
KPH
gust
KPH
rain 1hr
cm
rain 24hr
cm
rain mn
cm
humidity
%
barometer
mb
20260504100103 8 337 4.8 12.9 0.00 0.00 0.00 59 1016.0
20260504090108 9 42 11.3 20.9 0.00 0.00 0.00 54 1015.5
20260504081554 10 47 14.5 25.7 0.00 0.00 0.00 49 1014.9
20260504044558 14 51 9.7 20.9 0.00 0.05 0.00 36 1009.3
20260504043054 15 33 11.3 22.5 0.00 0.05 0.00 35 1008.9
20260504041552 15 71 9.7 19.3 0.00 0.05 0.00 34 1008.6
20260504040112 15 41 8.0 20.9 0.00 0.05 0.00 33 1008.4
20260504034557 16 34 9.7 19.3 0.00 0.05 0.00 30 1007.9
20260504033053 17 51 9.7 20.9 0.00 0.05 0.00 26 1007.6
20260504031552 18 50 9.7 20.9 0.00 0.05 0.00 22 1007.4
20260504030051 18 68 4.8 9.7 0.00 0.05 0.00 23 1007.0
20260504024555 18 61 4.8 9.7 0.00 0.05 0.00 23 1007.1
20260504023050 19 48 6.4 16.1 0.00 0.05 0.00 22 1006.9
20260504021553 20 13 4.8 12.9 0.00 0.05 0.00 22 1007.0
20260504020054 21 26 4.8 16.1 0.00 0.05 0.00 21 1006.9
20260504014553 22 347 6.4 16.1 0.00 0.05 0.00 20 1006.9
20260504013121 22 13 8.0 20.9 0.00 0.05 0.00 19 1006.9
20260504011553 23 16 6.4 24.1 0.00 0.05 0.00 17 1006.9
20260504010105 23 333 11.3 19.3 0.00 0.05 0.00 17 1006.9
20260504004608 23 331 12.9 24.1 0.00 0.05 0.00 16 1007.1
20260504003053 23 324 11.3 20.9 0.00 0.05 0.00 16 1007.2
20260504001554 23 344 16.1 24.1 0.00 0.05 0.00 16 1007.4
20260504000123 23 290 14.5 25.7 0.00 0.05 0.00 17 1007.4
20260503234553 23 306 19.3 32.2 0.00 0.05 0.00 16 1007.6
20260503233056 23 323 17.7 40.2 0.00 0.05 0.00 16 1007.6
20260503231551 24 286 24.1 38.6 0.00 0.05 0.00 16 1007.7
20260503230058 24 284 17.7 33.8 0.00 0.05 0.00 16 1007.9
20260503224552 23 299 16.1 35.4 0.00 0.05 0.00 17 1008.0
20260503223050 24 276 22.5 45.1 0.00 0.05 0.00 15 1008.1
20260503221554 23 262 20.9 33.8 0.00 0.05 0.00 16 1008.3
20260503214550 23 277 20.9 35.4 0.00 0.05 0.00 17 1008.6
20260503213053 22 266 14.5 27.4 0.00 0.05 0.00 18 1008.9
20260503211552 23 310 22.5 37.0 0.00 0.05 0.00 17 1009.3
20260503210050 23 319 16.1 38.6 0.00 0.05 0.00 17 1009.5
20260503204552 22 285 27.4 41.8 0.00 0.05 0.00 17 1009.9
20260503203056 22 292 20.9 41.8 0.00 0.05 0.00 18 1010.0
20260503201552 22 290 25.7 48.3 0.00 0.05 0.00 17 1010.1
20260503200056 22 289 29.0 41.8 0.00 0.05 0.00 18 1010.4
20260503194556 22 271 24.1 40.2 0.00 0.05 0.00 19 1010.6
20260503193052 22 281 24.1 40.2 0.00 0.05 0.00 22 1010.6
20260503191551 22 273 16.1 41.8 0.00 0.05 0.00 22 1010.9
20260503190048 21 288 14.5 37.0 0.00 0.05 0.00 24 1011.1
20260503184603 21 280 19.3 37.0 0.00 0.05 0.00 23 1011.3
20260503183057 21 283 20.9 37.0 0.00 0.05 0.00 24 1011.6
20260503181550 20 321 19.3 33.8 0.00 0.05 0.00 25 1011.8
20260503174551 20 261 17.7 25.7 0.00 0.05 0.00 28 1012.2
20260503173056 19 310 12.9 25.7 0.00 0.05 0.00 28 1012.3
20260503171547 19 273 16.1 25.7 0.00 0.05 0.00 33 1012.4